contact:dominique.lefevre@mio.osupytheas.fr, maurice.libes@osupytheas.fr, didier.mallarino@osupytheas.fr
Project:EMSO http://www.emso-fr.org/EMSO-France
Depth: 2436.0 m
Title:EMSO Ligure Ouest : Data MII capteur AQUADOPP
Date,Latitude,Longitude,X_East,Y_North,Z_Up,Amplitude_X,Amplitude_Y,Amplitude_Z,Batterie,SoundSpeed,Heading,Pitch,Roll,Pressure,TIS,Speed,Direction
, degrees North, degrees East, m.s-1, m.s-1,m.s-1, 1, 1, 1, Volt, m.s-1, degree, degree, degree, dbar, degree_C, m.s-1, degree
2021-06-28T00:04:03,42.805,6.029,-0.034,-0.032,0.003,105.0,104.0,103.0,13.4,1505.2,326.8,-0.7,1.8,2470.635,13.28,0.046,226.7
2021-06-28T00:07:03,42.805,6.029,-0.005,-0.025,0.004,106.0,105.0,103.0,13.4,1505.2,325.2,-0.8,1.8,2470.632,13.28,0.025,191.3
2021-06-28T00:10:03,42.805,6.029,-0.037,-0.025,-0.015,106.0,105.0,104.0,13.3,1505.2,325.3,-0.8,1.8,2470.613,13.28,0.044,236.0
2021-06-28T00:13:03,42.805,6.029,-0.013,-0.029,-0.018,106.0,104.0,103.0,13.4,1505.2,329.1,-0.8,1.8,2470.554,13.28,0.031,204.1
2021-06-28T00:16:03,42.805,6.029,-0.023,-0.023,-0.013,105.0,105.0,102.0,13.3,1505.2,330.0,-0.8,1.8,2470.6,13.28,0.032,225.0
2021-06-28T00:19:03,42.805,6.029,-0.04,-0.033,0.001,108.0,105.0,102.0,13.4,1505.2,328.6,-0.7,1.8,2470.622,13.28,0.051,230.5
2021-06-28T00:22:03,42.805,6.029,-0.032,-0.036,0.01,105.0,104.0,103.0,13.4,1505.2,326.5,-0.8,1.8,2470.598,13.28,0.048,221.6
2021-06-28T00:25:03,42.805,6.029,-0.02,-0.027,-0.026,106.0,104.0,103.0,13.3,1505.2,328.0,-0.7,1.8,2470.608,13.28,0.033,216.5
2021-06-28T00:28:03,42.805,6.029,-0.004,-0.032,-0.033,105.0,104.0,104.0,13.4,1505.2,328.5,-0.7,1.8,2470.604,13.28,0.032,187.1
2021-06-28T00:31:03,42.805,6.029,-0.039,-0.052,-0.026,104.0,106.0,103.0,13.3,1505.2,325.1,-0.7,1.8,2470.623,13.28,0.064,216.9
2021-06-28T00:34:03,42.805,6.029,-0.026,-0.017,0.0,104.0,106.0,104.0,13.4,1505.2,329.4,-0.7,1.8,2470.591,13.28,0.031,236.8
2021-06-28T00:37:03,42.805,6.029,-0.038,-0.038,-0.034,105.0,104.0,103.0,13.4,1505.2,328.4,-0.7,1.8,2470.574,13.28,0.053,225.0
2021-06-28T00:40:03,42.805,6.029,-0.032,-0.015,-0.028,105.0,105.0,102.0,13.4,1505.2,330.0,-0.8,1.8,2470.596,13.28,0.035,244.9
2021-06-28T00:43:03,42.805,6.029,-0.02,-0.018,-0.023,106.0,103.0,103.0,13.4,1505.2,328.1,-0.8,1.8,2470.558,13.28,0.026,228.0
2021-06-28T00:46:03,42.805,6.029,-0.043,-0.022,0.006,105.0,105.0,103.0,13.4,1505.2,329.0,-0.7,1.8,2470.576,13.28,0.048,242.9
2021-06-28T00:49:03,42.805,6.029,-0.008,-0.03,-0.012,104.0,104.0,102.0,13.4,1505.2,328.6,-0.7,1.8,2470.554,13.28,0.031,194.9
2021-06-28T00:52:03,42.805,6.029,-0.017,-0.057,-0.02,105.0,104.0,103.0,13.3,1505.2,330.2,-0.8,1.8,2470.574,13.28,0.059,196.6
2021-06-28T00:55:03,42.805,6.029,-0.004,-0.029,-0.024,105.0,104.0,103.0,13.3,1505.2,325.5,-0.7,1.8,2470.572,13.28,0.029,187.8
2021-06-28T00:58:03,42.805,6.029,-0.03,-0.029,-0.037,107.0,104.0,103.0,13.4,1505.2,328.3,-0.7,1.8,2470.578,13.28,0.041,226.0
2021-06-28T01:04:03,42.805,6.029,-0.031,-0.052,-0.031,105.0,104.0,103.0,13.4,1505.2,324.5,-0.8,1.8,2470.584,13.28,0.06,210.8
2021-06-28T01:07:03,42.805,6.029,-0.008,-0.045,-0.009,104.0,106.0,102.0,13.4,1505.2,327.3,-0.7,1.8,2470.548,13.28,0.045,190.1
2021-06-28T01:10:03,42.805,6.029,-0.032,-0.037,-0.014,106.0,106.0,102.0,13.3,1505.2,328.7,-0.8,1.8,2470.576,13.28,0.048,220.9
2021-06-28T01:13:03,42.805,6.029,-0.014,-0.037,-0.037,106.0,104.0,103.0,13.3,1505.2,326.6,-0.7,1.8,2470.559,13.28,0.039,200.7
2021-06-28T01:16:03,42.805,6.029,-0.022,-0.031,-0.04,106.0,106.0,102.0,13.4,1505.2,327.3,-0.7,1.8,2470.574,13.28,0.038,215.4
2021-06-28T01:19:03,42.805,6.029,-0.012,-0.048,-0.035,105.0,105.0,103.0,13.4,1505.2,327.5,-0.7,1.8,2470.535,13.28,0.049,194.0
2021-06-28T01:22:03,42.805,6.029,-0.032,-0.031,-0.005,105.0,106.0,102.0,13.4,1505.2,329.6,-0.7,1.8,2470.585,13.28,0.044,225.9
2021-06-28T01:25:03,42.805,6.029,-0.027,-0.04,-0.018,105.0,105.0,103.0,13.3,1505.2,327.0,-0.7,1.8,2470.578,13.28,0.048,214.0
2021-06-28T01:28:03,42.805,6.029,-0.019,-0.035,0.011,105.0,105.0,103.0,13.4,1505.2,328.7,-0.7,1.8,2470.536,13.28,0.039,208.5
2021-06-28T01:31:03,42.805,6.029,-0.009,-0.038,-0.01,106.0,105.0,103.0,13.4,1505.2,327.0,-0.7,1.8,2470.53,13.28,0.039,193.3
2021-06-28T01:34:03,42.805,6.029,-0.014,-0.026,-0.021,107.0,104.0,103.0,13.3,1505.2,326.4,-0.7,1.8,2470.533,13.28,0.029,208.3
2021-06-28T01:37:03,42.805,6.029,-0.015,-0.032,-0.032,106.0,105.0,103.0,13.3,1505.2,324.5,-0.7,1.9,2470.511,13.28,0.035,205.1
2021-06-28T01:40:03,42.805,6.029,-0.02,-0.04,0.005,107.0,104.0,103.0,13.3,1505.2,326.7,-0.7,1.8,2470.523,13.28,0.044,206.6
2021-06-28T01:43:03,42.805,6.029,-0.02,-0.013,0.009,106.0,105.0,103.0,13.4,1505.2,328.9,-0.8,1.8,2470.514,13.28,0.023,237.0
2021-06-28T01:46:03,42.805,6.029,-0.033,-0.037,-0.007,106.0,105.0,103.0,13.4,1505.2,329.7,-0.8,1.8,2470.537,13.28,0.049,221.7
2021-06-28T01:49:03,42.805,6.029,-0.03,-0.035,-0.015,107.0,106.0,103.0,13.4,1505.2,328.6,-0.8,1.9,2470.49,13.28,0.046,220.6
2021-06-28T01:52:03,42.805,6.029,-0.021,-0.027,-0.004,105.0,105.0,103.0,13.4,1505.2,325.2,-0.7,1.8,2470.539,13.28,0.034,217.9
2021-06-28T01:55:03,42.805,6.029,-0.011,-0.007,-0.044,106.0,106.0,101.0,13.4,1505.2,327.2,-0.8,1.8,2470.545,13.28,0.013,237.5
2021-06-28T01:58:03,42.805,6.029,-0.005,-0.038,-0.013,105.0,105.0,103.0,13.4,1505.2,328.3,-0.7,1.8,2470.543,13.28,0.038,187.5
2021-06-28T02:04:03,42.805,6.029,-0.027,-0.04,0.0,105.0,105.0,103.0,13.4,1505.2,326.4,-0.7,1.8,2470.52,13.28,0.048,214.0
2021-06-28T02:07:03,42.805,6.029,-0.014,-0.06,-0.036,104.0,105.0,102.0,13.4,1505.2,328.5,-0.8,1.8,2470.464,13.28,0.061,193.1
2021-06-28T02:10:03,42.805,6.029,-0.042,-0.024,-0.017,106.0,105.0,103.0,13.4,1505.2,327.6,-0.8,1.8,2470.512,13.28,0.048,240.3
2021-06-28T02:13:03,42.805,6.029,-0.02,-0.03,-0.018,106.0,105.0,103.0,13.4,1505.2,324.6,-0.8,1.8,2470.495,13.28,0.036,213.7
2021-06-28T02:16:03,42.805,6.029,-0.012,-0.022,0.019,104.0,104.0,104.0,13.4,1505.2,327.8,-0.7,1.8,2470.486,13.28,0.025,208.6
2021-06-28T02:19:03,42.805,6.029,-0.034,-0.03,-0.008,105.0,104.0,103.0,13.4,1505.2,325.3,-0.7,1.9,2470.514,13.28,0.045,228.6
2021-06-28T02:22:03,42.805,6.029,-0.034,-0.021,-0.018,104.0,106.0,103.0,13.4,1505.2,326.3,-0.7,1.8,2470.522,13.28,0.039,238.3
2021-06-28T02:25:03,42.805,6.029,-0.028,-0.048,0.008,105.0,105.0,102.0,13.4,1505.2,326.0,-0.8,1.9,2470.512,13.28,0.055,210.3
2021-06-28T02:28:03,42.805,6.029,-0.021,-0.039,-0.012,105.0,104.0,103.0,13.4,1505.2,328.0,-0.8,1.9,2470.476,13.28,0.044,208.3
2021-06-28T02:31:03,42.805,6.029,-0.031,-0.032,-0.021,106.0,105.0,102.0,13.4,1505.2,327.6,-0.8,1.8,2470.471,13.28,0.044,224.1
2021-06-28T02:34:03,42.805,6.029,-0.024,-0.051,-0.022,105.0,104.0,103.0,13.3,1505.2,328.5,-0.8,1.8,2470.495,13.28,0.056,205.2
2021-06-28T02:37:03,42.805,6.029,-0.017,-0.041,-0.045,106.0,105.0,103.0,13.4,1505.2,330.7,-0.8,1.9,2470.506,13.28,0.044,202.5
2021-06-28T02:40:03,42.805,6.029,-0.029,-0.034,-0.014,105.0,105.0,102.0,13.4,1505.2,326.1,-0.7,1.8,2470.482,13.28,0.044,220.5
2021-06-28T02:43:03,42.805,6.029,-0.022,-0.024,-0.01,106.0,104.0,103.0,13.4,1505.2,328.6,-0.8,1.8,2470.503,13.28,0.032,222.5
2021-06-28T02:46:03,42.805,6.029,-0.029,-0.033,-0.007,107.0,104.0,103.0,13.4,1505.2,327.9,-0.8,1.8,2470.445,13.28,0.043,221.3
2021-06-28T02:49:03,42.805,6.029,-0.027,-0.027,-0.029,105.0,105.0,102.0,13.3,1505.2,329.6,-0.7,1.8,2470.487,13.28,0.038,225.0
2021-06-28T02:52:03,42.805,6.029,-0.026,-0.036,-0.006,103.0,104.0,104.0,13.4,1505.2,326.1,-0.8,1.8,2470.474,13.28,0.044,215.8
2021-06-28T02:55:03,42.805,6.029,-0.033,-0.036,-0.018,104.0,105.0,103.0,13.3,1505.2,324.8,-0.8,1.8,2470.441,13.28,0.048,222.5
2021-06-28T02:58:03,42.805,6.029,-0.025,-0.041,0.016,106.0,103.0,102.0,13.4,1505.2,328.9,-0.8,1.8,2470.468,13.28,0.048,211.4
2021-06-28T04:04:03,42.805,6.029,-0.01,-0.025,-0.028,105.0,105.0,102.0,13.4,1505.1,328.8,-0.8,1.8,2470.858,13.27,0.026,201.8
2021-06-28T04:07:03,42.805,6.029,-0.024,-0.025,-0.004,106.0,104.0,103.0,13.3,1505.1,329.8,-0.7,1.8,2470.795,13.27,0.034,223.8
2021-06-28T04:10:03,42.805,6.029,-0.025,-0.037,-0.041,105.0,105.0,102.0,13.3,1505.2,327.3,-0.8,1.8,2470.734,13.28,0.044,214.0
2021-06-28T04:13:03,42.805,6.029,-0.03,-0.048,-0.033,103.0,106.0,103.0,13.4,1505.2,326.4,-0.7,1.8,2470.716,13.28,0.056,212.0
2021-06-28T04:16:03,42.805,6.029,0.0,-0.029,0.014,105.0,105.0,102.0,13.3,1505.2,327.4,-0.8,1.8,2470.66,13.28,0.028,180.0
2021-06-28T04:19:03,42.805,6.029,-0.037,-0.03,-0.001,105.0,103.0,103.0,13.3,1505.2,329.2,-0.8,1.8,2470.617,13.28,0.047,231.0
2021-06-28T04:22:03,42.805,6.029,-0.047,-0.025,0.007,105.0,104.0,102.0,13.4,1505.2,324.9,-0.8,1.8,2470.582,13.28,0.053,242.0
2021-06-28T04:25:03,42.805,6.029,-0.036,-0.037,0.013,106.0,104.0,102.0,13.3,1505.2,326.0,-0.8,1.8,2470.562,13.28,0.051,224.2
2021-06-28T04:28:03,42.805,6.029,-0.02,-0.031,-0.026,105.0,104.0,103.0,13.4,1505.2,329.5,-0.8,1.9,2470.521,13.28,0.036,212.8
2021-06-28T04:31:03,42.805,6.029,-0.029,-0.013,-0.011,106.0,104.0,103.0,13.3,1505.2,328.8,-0.8,1.8,2470.489,13.28,0.031,245.9
2021-06-28T04:34:03,42.805,6.029,-0.037,-0.033,-0.026,106.0,104.0,102.0,13.4,1505.2,327.0,-0.8,1.9,2470.513,13.28,0.049,228.3
2021-06-28T04:37:03,42.805,6.029,-0.029,-0.03,-0.016,106.0,104.0,103.0,13.3,1505.2,326.4,-0.7,1.8,2470.476,13.28,0.041,224.0
2021-06-28T04:40:03,42.805,6.029,-0.03,-0.039,-0.047,105.0,105.0,102.0,13.4,1505.2,328.9,-0.8,1.8,2470.456,13.28,0.049,217.6
2021-06-28T04:43:03,42.805,6.029,-0.014,-0.023,-0.003,105.0,104.0,103.0,13.4,1505.2,328.4,-0.8,1.8,2470.475,13.28,0.026,211.3
2021-06-28T04:46:03,42.805,6.029,-0.018,-0.031,-0.016,105.0,104.0,102.0,13.3,1505.2,326.3,-0.7,1.8,2470.448,13.28,0.035,210.1
2021-06-28T04:49:03,42.805,6.029,-0.015,-0.016,0.0,105.0,105.0,102.0,13.3,1505.2,326.0,-0.7,1.8,2470.461,13.28,0.021,223.1
2021-06-28T04:52:03,42.805,6.029,0.005,-0.032,-0.017,105.0,105.0,102.0,13.4,1505.2,326.5,-0.7,1.8,2470.431,13.28,0.032,171.1
2021-06-28T04:55:03,42.805,6.029,-0.013,-0.011,0.008,105.0,105.0,103.0,13.4,1505.2,326.4,-0.7,1.8,2470.451,13.28,0.017,229.8
2021-06-28T04:58:03,42.805,6.029,-0.012,-0.006,-0.011,105.0,106.0,102.0,13.4,1505.2,327.1,-0.8,1.8,2470.399,13.28,0.013,243.4
2021-06-28T05:01:03,42.805,6.029,-0.015,-0.044,-0.002,105.0,105.0,103.0,13.3,1505.2,329.5,-0.8,1.8,2470.469,13.28,0.046,198.8
2021-06-28T05:04:03,42.805,6.029,-0.02,-0.018,-0.003,105.0,104.0,102.0,13.4,1505.2,328.5,-0.8,1.8,2470.441,13.28,0.026,228.0
2021-06-28T05:07:03,42.805,6.029,0.002,-0.026,-0.003,105.0,103.0,102.0,13.4,1505.2,329.1,-0.8,1.8,2470.393,13.28,0.026,175.6
2021-06-28T05:10:03,42.805,6.029,-0.022,-0.015,-0.03,105.0,104.0,102.0,13.4,1505.2,327.7,-0.8,1.8,2470.418,13.28,0.026,235.7
2021-06-28T05:13:03,42.805,6.029,-0.009,-0.011,-0.001,105.0,104.0,102.0,13.4,1505.2,329.4,-0.8,1.8,2470.444,13.28,0.014,219.3
2021-06-28T05:16:03,42.805,6.029,-0.02,-0.015,-0.005,105.0,105.0,102.0,13.4,1505.2,327.2,-0.7,1.8,2470.439,13.28,0.025,233.1
2021-06-28T05:19:03,42.805,6.029,0.0,-0.042,-0.021,105.0,105.0,102.0,13.4,1505.2,328.9,-0.8,1.8,2470.435,13.28,0.042,180.0
2021-06-28T05:22:03,42.805,6.029,-0.039,-0.015,-0.006,105.0,105.0,102.0,13.4,1505.2,326.1,-0.8,1.8,2470.418,13.28,0.041,249.0
2021-06-28T05:25:03,42.805,6.029,-0.026,-0.029,-0.021,105.0,105.0,102.0,13.3,1505.2,330.1,-0.8,1.8,2470.403,13.28,0.038,221.9
2021-06-28T05:28:03,42.805,6.029,-0.023,-0.032,-0.008,106.0,103.0,103.0,13.3,1505.2,328.2,-0.7,1.8,2470.439,13.28,0.039,215.7
2021-06-28T05:31:03,42.805,6.029,-0.015,-0.015,-0.017,106.0,104.0,102.0,13.3,1505.2,325.9,-0.8,1.8,2470.462,13.28,0.021,225.0
2021-06-28T05:34:03,42.805,6.029,-0.031,-0.023,-0.032,104.0,104.0,102.0,13.3,1505.2,328.3,-0.7,1.8,2470.416,13.28,0.038,233.4
2021-06-28T05:37:03,42.805,6.029,-0.022,-0.034,-0.039,105.0,105.0,103.0,13.3,1505.2,329.8,-0.7,1.8,2470.453,13.28,0.04,212.9
2021-06-28T05:40:03,42.805,6.029,-0.01,-0.011,-0.006,106.0,105.0,103.0,13.4,1505.2,326.2,-0.8,1.9,2470.429,13.28,0.014,222.3
2021-06-28T05:43:03,42.805,6.029,-0.032,-0.028,-0.02,104.0,106.0,104.0,13.4,1505.2,328.4,-0.7,1.8,2470.428,13.28,0.042,228.8
2021-06-28T05:46:03,42.805,6.029,0.0,-0.013,-0.003,105.0,104.0,103.0,13.3,1505.2,328.3,-0.8,1.8,2470.388,13.28,0.013,180.0
2021-06-28T05:49:03,42.805,6.029,-0.015,-0.033,0.004,106.0,104.0,103.0,13.4,1505.2,325.4,-0.8,1.8,2470.416,13.28,0.036,204.4
2021-06-28T05:52:03,42.805,6.029,-0.001,-0.027,-0.028,105.0,105.0,103.0,13.4,1505.2,325.0,-0.8,1.8,2470.45,13.28,0.027,182.1
2021-06-28T05:55:03,42.805,6.029,0.0,-0.04,-0.026,106.0,105.0,103.0,13.4,1505.2,329.8,-0.8,1.8,2470.451,13.28,0.04,180.0
2021-06-28T05:58:03,42.805,6.029,-0.012,-0.034,-0.049,105.0,104.0,103.0,13.3,1505.2,327.9,-0.7,1.9,2470.444,13.28,0.036,199.4
2021-06-28T06:04:03,42.805,6.029,-0.004,-0.006,0.003,105.0,105.0,104.0,13.4,1505.2,329.2,-0.8,1.8,2470.444,13.28,0.007,213.7
2021-06-28T06:07:03,42.805,6.029,-0.014,-0.028,-0.018,106.0,105.0,102.0,13.4,1505.2,326.5,-0.8,1.8,2470.472,13.28,0.031,206.6
2021-06-28T06:10:03,42.805,6.029,-0.019,-0.039,-0.009,105.0,104.0,103.0,13.3,1505.2,326.4,-0.7,1.8,2470.439,13.28,0.043,206.0
2021-06-28T06:13:03,42.805,6.029,-0.016,-0.029,0.014,105.0,104.0,103.0,13.3,1505.2,328.6,-0.8,1.8,2470.453,13.28,0.033,208.9
2021-06-28T06:16:03,42.805,6.029,-0.02,-0.037,0.006,105.0,105.0,103.0,13.4,1505.2,326.3,-0.7,1.8,2470.447,13.28,0.042,208.4
2021-06-28T06:19:03,42.805,6.029,-0.007,-0.02,0.004,105.0,105.0,103.0,13.4,1505.2,326.7,-0.7,1.8,2470.459,13.28,0.021,199.3
2021-06-28T06:22:03,42.805,6.029,-0.037,-0.023,-0.022,104.0,105.0,103.0,13.4,1505.2,329.9,-0.8,1.8,2470.455,13.28,0.043,238.1
2021-06-28T06:25:03,42.805,6.029,-0.052,-0.019,-0.029,104.0,105.0,102.0,13.4,1505.2,326.8,-0.7,1.8,2470.423,13.28,0.055,249.9
2021-06-28T06:28:03,42.805,6.029,-0.006,-0.042,-0.007,106.0,103.0,102.0,13.4,1505.2,329.9,-0.7,1.8,2470.449,13.28,0.042,188.1
2021-06-28T06:31:03,42.805,6.029,-0.017,-0.027,0.024,104.0,104.0,103.0,13.4,1505.2,327.1,-0.7,1.8,2470.475,13.28,0.031,212.2
2021-06-28T06:34:03,42.805,6.029,-0.022,-0.033,0.001,107.0,105.0,102.0,13.4,1505.2,329.7,-0.8,1.8,2470.43,13.28,0.039,213.7
2021-06-28T06:37:03,42.805,6.029,-0.023,-0.025,-0.017,105.0,105.0,103.0,13.4,1505.2,328.4,-0.7,1.8,2470.46,13.28,0.033,222.6
2021-06-28T06:40:03,42.805,6.029,-0.002,-0.035,0.012,104.0,105.0,103.0,13.4,1505.2,327.2,-0.8,1.8,2470.464,13.28,0.035,183.3
2021-06-28T06:43:03,42.805,6.029,-0.021,-0.017,0.02,105.0,104.0,104.0,13.3,1505.2,329.4,-0.7,1.8,2470.455,13.28,0.027,231.0
2021-06-28T06:46:03,42.805,6.029,-0.013,-0.022,-0.044,106.0,104.0,103.0,13.4,1505.2,328.7,-0.8,1.8,2470.462,13.28,0.025,210.6
2021-06-28T06:49:03,42.805,6.029,-0.014,-0.019,-0.026,107.0,104.0,103.0,13.4,1505.2,329.5,-0.8,1.8,2470.427,13.28,0.023,216.4
2021-06-28T06:52:03,42.805,6.029,-0.01,-0.032,-0.021,105.0,104.0,103.0,13.4,1505.2,325.5,-0.8,1.8,2470.447,13.28,0.033,197.4
2021-06-28T06:55:03,42.805,6.029,-0.019,-0.02,-0.015,106.0,105.0,103.0,13.4,1505.2,325.0,-0.8,1.8,2470.467,13.28,0.027,223.5
2021-06-28T06:58:03,42.805,6.029,-0.015,-0.024,-0.019,105.0,105.0,102.0,13.4,1505.2,326.8,-0.7,1.8,2470.454,13.28,0.028,212.0
2021-06-28T07:04:03,42.805,6.029,-0.041,-0.035,-0.025,106.0,104.0,103.0,13.3,1505.2,325.9,-0.8,1.8,2470.452,13.28,0.053,229.5
2021-06-28T07:07:03,42.805,6.029,-0.003,-0.026,-0.023,105.0,105.0,104.0,13.3,1505.2,325.2,-0.8,1.8,2470.511,13.28,0.026,186.6
2021-06-28T07:10:03,42.805,6.029,-0.011,-0.029,-0.021,104.0,104.0,103.0,13.4,1505.2,327.6,-0.7,1.8,2470.463,13.28,0.031,200.8
2021-06-28T07:13:03,42.805,6.029,-0.025,-0.036,-0.003,105.0,104.0,102.0,13.4,1505.2,326.7,-0.8,1.8,2470.486,13.28,0.043,214.8
2021-06-28T07:16:03,42.805,6.029,-0.019,-0.022,-0.01,104.0,103.0,102.0,13.3,1505.2,329.1,-0.8,1.8,2470.499,13.28,0.029,220.8
2021-06-28T07:19:03,42.805,6.029,-0.021,-0.034,-0.006,104.0,104.0,104.0,13.4,1505.2,328.2,-0.8,1.9,2470.466,13.28,0.039,211.7
2021-06-28T07:22:03,42.805,6.029,-0.016,-0.023,-0.039,105.0,104.0,103.0,13.4,1505.2,325.2,-0.8,1.9,2470.474,13.28,0.028,214.8
2021-06-28T07:25:03,42.805,6.029,-0.015,-0.034,0.014,106.0,105.0,103.0,13.4,1505.2,324.8,-0.7,1.8,2470.489,13.28,0.037,203.8
2021-06-28T07:28:03,42.805,6.029,-0.023,-0.044,-0.016,106.0,104.0,102.0,13.3,1505.2,324.3,-0.7,1.8,2470.5,13.28,0.049,207.6
2021-06-28T07:31:03,42.805,6.029,-0.03,-0.035,-0.015,106.0,106.0,103.0,13.4,1505.2,325.2,-0.7,1.8,2470.458,13.28,0.046,220.6
2021-06-28T07:34:03,42.805,6.029,-0.027,-0.031,-0.006,106.0,104.0,105.0,13.3,1505.2,325.0,-0.7,1.8,2470.502,13.28,0.041,221.1
2021-06-28T07:37:03,42.805,6.029,-0.024,-0.021,-0.016,105.0,104.0,104.0,13.4,1505.2,328.4,-0.7,1.8,2470.503,13.28,0.031,228.8
2021-06-28T07:40:03,42.805,6.029,-0.031,-0.031,-0.02,107.0,105.0,102.0,13.4,1505.2,327.3,-0.8,1.8,2470.486,13.28,0.043,225.0
2021-06-28T07:43:03,42.805,6.029,-0.004,-0.048,0.005,106.0,106.0,103.0,13.3,1505.2,328.2,-0.7,1.8,2470.482,13.28,0.048,184.8
2021-06-28T07:46:03,42.805,6.029,-0.007,-0.03,0.007,105.0,105.0,104.0,13.4,1505.2,325.3,-0.7,1.8,2470.484,13.28,0.03,193.1
2021-06-28T07:49:03,42.805,6.029,-0.03,-0.021,-0.015,106.0,104.0,102.0,13.4,1505.2,326.2,-0.7,1.8,2470.493,13.28,0.036,235.0
2021-06-28T07:52:03,42.805,6.029,-0.017,-0.043,-0.011,104.0,104.0,103.0,13.4,1505.2,325.8,-0.7,1.8,2470.492,13.28,0.046,201.6
2021-06-28T07:55:03,42.805,6.029,-0.021,-0.029,-0.036,106.0,105.0,103.0,13.4,1505.2,327.6,-0.7,1.8,2470.517,13.28,0.035,215.9
2021-06-28T07:58:03,42.805,6.029,-0.013,-0.025,-0.015,106.0,106.0,102.0,13.3,1505.2,328.6,-0.7,1.8,2470.512,13.28,0.028,207.5
2021-06-28T08:04:03,42.805,6.029,-0.034,-0.036,-0.015,105.0,105.0,103.0,13.4,1505.2,326.0,-0.8,1.8,2470.539,13.28,0.049,223.4
2021-06-28T08:07:03,42.805,6.029,-0.005,-0.023,-0.033,106.0,105.0,103.0,13.3,1505.2,328.7,-0.7,1.9,2470.54,13.28,0.023,192.3
2021-06-28T08:10:03,42.805,6.029,-0.022,-0.018,-0.051,105.0,105.0,102.0,13.4,1505.2,326.4,-0.8,1.8,2470.526,13.28,0.028,230.7
2021-06-28T08:13:03,42.805,6.029,-0.005,-0.032,-0.011,105.0,104.0,103.0,13.4,1505.2,324.3,-0.8,1.8,2470.526,13.28,0.032,188.9
2021-06-28T08:16:03,42.805,6.029,-0.036,-0.031,0.001,105.0,105.0,103.0,13.3,1505.2,329.1,-0.8,1.9,2470.567,13.28,0.047,229.3
2021-06-28T08:19:03,42.805,6.029,0.002,-0.026,0.002,106.0,105.0,103.0,13.3,1505.2,326.6,-0.7,1.8,2470.529,13.28,0.026,175.6
2021-06-28T08:22:03,42.805,6.029,-0.011,-0.035,0.006,106.0,106.0,101.0,13.4,1505.2,326.6,-0.8,1.8,2470.52,13.28,0.036,197.4
2021-06-28T08:25:03,42.805,6.029,-0.011,-0.028,-0.013,108.0,104.0,103.0,13.4,1505.2,324.9,-0.7,1.8,2470.514,13.28,0.03,201.4
2021-06-28T08:28:03,42.805,6.029,-0.021,-0.033,0.002,106.0,104.0,104.0,13.3,1505.2,327.7,-0.8,1.8,2470.507,13.28,0.039,212.5
2021-06-28T08:31:03,42.805,6.029,0.005,-0.032,-0.009,106.0,104.0,104.0,13.4,1505.2,328.1,-0.8,1.8,2470.562,13.28,0.032,171.1
2021-06-28T08:34:03,42.805,6.029,-0.021,-0.052,0.011,107.0,105.0,102.0,13.3,1505.2,329.2,-0.8,1.9,2470.554,13.28,0.056,202.0
2021-06-28T08:37:03,42.805,6.029,-0.004,-0.04,0.0,107.0,104.0,104.0,13.4,1505.2,328.4,-0.8,1.8,2470.516,13.28,0.04,185.7
2021-06-28T08:40:03,42.805,6.029,-0.024,-0.054,-0.024,106.0,104.0,102.0,13.4,1505.2,328.3,-0.8,1.8,2470.517,13.28,0.059,204.0
2021-06-28T08:43:03,42.805,6.029,-0.009,-0.029,-0.021,107.0,104.0,103.0,13.4,1505.2,328.9,-0.7,1.8,2470.509,13.28,0.03,197.2
2021-06-28T08:46:03,42.805,6.029,-0.026,-0.051,-0.019,104.0,105.0,103.0,13.3,1505.2,328.2,-0.8,1.8,2470.533,13.28,0.057,207.0
2021-06-28T08:49:03,42.805,6.029,-0.014,-0.043,-0.002,106.0,105.0,104.0,13.4,1505.2,326.1,-0.7,1.8,2470.485,13.28,0.045,198.0
2021-06-28T08:52:03,42.805,6.029,-0.01,-0.042,0.014,107.0,104.0,103.0,13.3,1505.2,328.1,-0.8,1.8,2470.52,13.28,0.043,193.4
2021-06-28T08:55:03,42.805,6.029,-0.007,-0.015,-0.007,106.0,105.0,103.0,13.4,1505.2,324.9,-0.8,1.8,2470.542,13.28,0.016,205.0
2021-06-28T08:58:03,42.805,6.029,-0.025,-0.032,-0.03,105.0,105.0,103.0,13.4,1505.2,326.2,-0.7,1.8,2470.499,13.28,0.04,218.0
2021-06-28T09:04:03,42.805,6.029,0.008,-0.035,-0.014,105.0,104.0,104.0,13.4,1505.2,328.6,-0.8,1.8,2470.528,13.28,0.035,167.1
2021-06-28T09:07:03,42.805,6.029,-0.034,-0.022,0.003,106.0,105.0,104.0,13.4,1505.2,326.9,-0.8,1.8,2470.566,13.28,0.04,237.1
2021-06-28T09:10:03,42.805,6.029,-0.005,-0.021,-0.021,105.0,106.0,104.0,13.4,1505.2,327.5,-0.8,1.8,2470.587,13.28,0.021,193.4
2021-06-28T09:13:03,42.805,6.029,-0.018,-0.026,0.011,106.0,105.0,102.0,13.4,1505.2,326.3,-0.8,1.8,2470.547,13.28,0.031,214.7
2021-06-28T09:16:03,42.805,6.029,-0.006,-0.029,0.013,106.0,105.0,103.0,13.4,1505.2,327.7,-0.8,1.8,2470.516,13.28,0.029,191.7
2021-06-28T09:19:03,42.805,6.029,-0.014,-0.026,-0.023,106.0,106.0,103.0,13.4,1505.2,328.3,-0.7,1.8,2470.571,13.28,0.029,208.3
2021-06-28T09:22:03,42.805,6.029,-0.004,-0.034,-0.046,105.0,107.0,104.0,13.4,1505.2,325.9,-0.7,1.8,2470.526,13.28,0.034,186.7
2021-06-28T09:25:03,42.805,6.029,-0.011,-0.03,-0.002,106.0,104.0,103.0,13.3,1505.2,326.1,-0.8,1.8,2470.525,13.28,0.031,200.1
2021-06-28T09:28:03,42.805,6.029,-0.013,-0.048,-0.02,106.0,105.0,104.0,13.4,1505.2,327.0,-0.7,1.8,2470.568,13.28,0.049,195.2
2021-06-28T09:31:03,42.805,6.029,-0.036,-0.041,0.012,105.0,104.0,103.0,13.3,1505.2,326.4,-0.7,1.8,2470.54,13.28,0.054,221.3
2021-06-28T09:34:03,42.805,6.029,-0.023,-0.012,0.018,106.0,105.0,103.0,13.4,1505.2,329.7,-0.7,1.8,2470.522,13.28,0.025,242.4
2021-06-28T09:37:03,42.805,6.029,-0.015,-0.045,-0.048,106.0,105.0,103.0,13.4,1505.2,327.3,-0.8,1.8,2470.544,13.28,0.047,198.4
2021-06-28T09:40:03,42.805,6.029,-0.056,-0.035,-0.062,106.0,105.0,102.0,13.3,1505.2,329.9,-0.8,1.8,2470.53,13.28,0.066,238.0
2021-06-28T09:43:03,42.805,6.029,-0.028,-0.012,-0.017,105.0,105.0,104.0,13.4,1505.2,327.4,-0.8,1.8,2470.522,13.28,0.03,246.8
2021-06-28T09:46:03,42.805,6.029,-0.043,-0.041,-0.027,106.0,105.0,103.0,13.3,1505.2,327.3,-0.7,1.8,2470.559,13.28,0.059,226.4
2021-06-28T09:49:03,42.805,6.029,-0.013,-0.023,0.0,105.0,105.0,103.0,13.3,1505.2,328.4,-0.8,1.8,2470.494,13.28,0.026,209.5
2021-06-28T09:52:03,42.805,6.029,-0.002,-0.023,-0.007,106.0,105.0,102.0,13.4,1505.2,326.8,-0.7,1.8,2470.502,13.28,0.023,185.0
2021-06-28T09:55:03,42.805,6.029,0.002,-0.031,-0.002,105.0,106.0,105.0,13.4,1505.2,327.3,-0.7,1.8,2470.526,13.28,0.031,176.3
2021-06-28T09:58:03,42.805,6.029,-0.023,-0.015,-0.027,106.0,106.0,102.0,13.4,1505.2,330.3,-0.7,1.8,2470.549,13.28,0.027,236.9
2021-06-28T10:04:03,42.805,6.029,-0.016,-0.04,-0.011,105.0,105.0,103.0,13.4,1505.2,326.5,-0.8,1.8,2470.565,13.28,0.043,201.8
2021-06-28T10:07:03,42.805,6.029,-0.019,-0.04,-0.009,106.0,105.0,104.0,13.4,1505.2,328.2,-0.8,1.8,2470.554,13.28,0.044,205.4
2021-06-28T10:10:03,42.805,6.029,-0.016,-0.029,-0.015,106.0,105.0,103.0,13.3,1505.2,326.5,-0.8,1.8,2470.56,13.28,0.033,208.9
2021-06-28T10:13:03,42.805,6.029,-0.005,-0.043,-0.017,106.0,106.0,103.0,13.4,1505.2,328.5,-0.7,1.8,2470.577,13.28,0.043,186.6
2021-06-28T10:16:03,42.805,6.029,-0.026,-0.021,0.023,106.0,105.0,103.0,13.4,1505.2,327.9,-0.7,1.8,2470.542,13.28,0.033,231.1
2021-06-28T10:19:03,42.805,6.029,-0.029,-0.029,-0.022,107.0,105.0,103.0,13.4,1505.2,325.6,-0.7,1.8,2470.513,13.28,0.041,225.0
2021-06-28T10:22:03,42.805,6.029,-0.008,-0.043,0.008,106.0,105.0,104.0,13.4,1505.2,325.9,-0.7,1.8,2470.499,13.28,0.043,190.5
2021-06-28T10:25:03,42.805,6.029,-0.027,-0.032,-0.03,106.0,106.0,103.0,13.4,1505.2,330.1,-0.8,1.8,2470.501,13.28,0.041,220.2
2021-06-28T10:28:03,42.805,6.029,-0.021,-0.03,-0.023,106.0,105.0,103.0,13.4,1505.2,328.4,-0.8,1.8,2470.514,13.28,0.036,215.0
2021-06-28T10:31:03,42.805,6.029,-0.01,-0.038,-0.029,107.0,105.0,103.0,13.3,1505.2,324.9,-0.8,1.8,2470.563,13.28,0.039,194.7
2021-06-28T10:34:03,42.805,6.029,-0.019,-0.032,-0.045,106.0,106.0,104.0,13.3,1505.2,329.3,-0.7,1.8,2470.476,13.28,0.037,210.7
2021-06-28T10:37:03,42.805,6.029,-0.036,-0.047,-0.019,105.0,105.0,103.0,13.3,1505.2,327.9,-0.7,1.8,2470.508,13.28,0.059,217.5
2021-06-28T10:40:03,42.805,6.029,-0.018,-0.041,0.002,106.0,105.0,104.0,13.4,1505.2,328.8,-0.7,1.8,2470.528,13.28,0.044,203.7
2021-06-28T10:43:03,42.805,6.029,-0.009,-0.033,-0.004,105.0,106.0,103.0,13.4,1505.2,328.4,-0.7,1.8,2470.478,13.28,0.034,195.3
2021-06-28T10:46:03,42.805,6.029,-0.009,-0.014,0.012,106.0,105.0,104.0,13.4,1505.2,329.2,-0.7,1.8,2470.512,13.28,0.016,212.7